Time,TemperatureF,DewpointF,PressureIn,WindDirection,WindDirectionDegrees,WindSpeedMPH,WindSpeedGustMPH,Humidity,HourlyPrecipIn,Conditions,Clouds,dailyrainin,SoftwareType,DateUTC
2013-01-10 00:01:00,39.8,36.2,29.94,SE,135,0.9,2.0,87,0.00,,,0.00,WUHU216HW,2013-01-10 08:01:00,
2013-01-10 00:06:00,40.0,36.6,29.94,SSE,158,2.5,2.9,88,0.00,,,0.00,WUHU216HW,2013-01-10 08:06:00,
2013-01-10 00:11:00,39.8,36.2,29.94,South,180,1.3,3.4,87,0.00,,,0.00,WUHU216HW,2013-01-10 08:11:00,
2013-01-10 00:16:00,40.0,36.4,29.94,SSW,203,1.1,3.4,87,0.00,,,0.00,WUHU216HW,2013-01-10 08:16:00,
2013-01-10 00:21:00,39.8,36.2,29.94,WSW,248,2.0,2.9,87,0.00,,,0.00,WUHU216HW,2013-01-10 08:21:00,
2013-01-10 00:26:00,39.8,36.2,29.94,SSW,203,1.8,2.5,87,0.00,,,0.00,WUHU216HW,2013-01-10 08:26:00,
2013-01-10 00:31:00,39.8,36.5,29.94,SSW,203,0.4,2.5,88,0.00,,,0.00,WUHU216HW,2013-01-10 08:31:00,
2013-01-10 00:36:00,39.6,36.4,29.94,SSW,203,1.3,1.8,88,0.00,,,0.00,WUHU216HW,2013-01-10 08:36:00,
2013-01-10 00:41:00,39.6,36.4,29.94,SSW,203,0.0,1.6,88,0.00,,,0.00,WUHU216HW,2013-01-10 08:41:00,
2013-01-10 00:46:00,39.6,36.6,29.94,WSW,248,0.4,1.6,89,0.00,,,0.00,WUHU216HW,2013-01-10 08:46:00,
2013-01-10 00:51:00,39.4,36.5,29.94,SSW,203,2.5,2.5,89,0.00,,,0.00,WUHU216HW,2013-01-10 08:51:00,
2013-01-10 00:56:00,39.4,36.5,29.94,SSW,203,1.1,2.5,89,0.00,,,0.00,WUHU216HW,2013-01-10 08:56:00,
2013-01-10 01:01:00,39.2,36.3,29.94,SSE,158,1.8,1.8,89,0.00,,,0.00,WUHU216HW,2013-01-10 09:01:00,
2013-01-10 01:06:00,39.2,36.3,29.94,SSW,203,0.0,1.8,89,0.00,,,0.00,WUHU216HW,2013-01-10 09:06:00,
2013-01-10 01:11:00,39.2,36.3,29.95,SW,225,0.7,2.0,89,0.00,,,0.00,WUHU216HW,2013-01-10 09:11:00,
2013-01-10 01:16:00,39.2,36.3,29.95,WSW,248,0.4,2.0,89,0.00,,,0.00,WUHU216HW,2013-01-10 09:16:00,
2013-01-10 01:21:00,39.2,36.3,29.95,SSE,158,2.5,2.5,89,0.00,,,0.00,WUHU216HW,2013-01-10 09:21:00,
2013-01-10 01:26:00,39.2,36.3,29.95,South,180,0.4,2.5,89,0.00,,,0.00,WUHU216HW,2013-01-10 09:26:00,
2013-01-10 01:31:00,39.2,36.3,29.95,SSW,203,1.6,1.6,89,0.00,,,0.00,WUHU216HW,2013-01-10 09:31:00,
2013-01-10 01:36:00,39.2,36.3,29.95,SW,225,0.0,1.8,89,0.00,,,0.00,WUHU216HW,2013-01-10 09:36:00,
2013-01-10 01:41:00,39.2,36.3,29.96,WNW,293,0.0,1.8,89,0.00,,,0.00,WUHU216HW,2013-01-10 09:41:00,
2013-01-10 01:46:00,39.2,36.3,29.96,West,270,0.2,1.1,89,0.00,,,0.00,WUHU216HW,2013-01-10 09:46:00,
2013-01-10 01:51:00,39.2,36.3,29.96,South,180,0.7,1.1,89,0.00,,,0.00,WUHU216HW,2013-01-10 09:51:00,
2013-01-10 01:56:00,39.2,36.3,29.96,SSW,203,1.1,1.1,89,0.00,,,0.00,WUHU216HW,2013-01-10 09:56:00,
2013-01-10 02:01:00,39.2,36.5,29.96,South,180,2.5,2.5,90,0.00,,,0.00,WUHU216HW,2013-01-10 10:01:00,
2013-01-10 02:06:00,39.2,36.5,29.96,SW,225,0.0,2.5,90,0.00,,,0.00,WUHU216HW,2013-01-10 10:06:00,
2013-01-10 02:11:00,39.2,36.5,29.96,South,180,1.1,2.2,90,0.00,,,0.00,WUHU216HW,2013-01-10 10:11:00,
2013-01-10 02:16:00,39.2,36.3,29.96,SSW,203,0.7,1.8,89,0.00,,,0.00,WUHU216HW,2013-01-10 10:16:00,
2013-01-10 02:21:00,39.2,36.3,29.97,SSE,158,1.1,1.8,89,0.00,,,0.00,WUHU216HW,2013-01-10 10:21:00,
2013-01-10 02:26:00,39.1,36.1,29.97,SSW,203,0.0,1.3,89,0.00,,,0.00,WUHU216HW,2013-01-10 10:26:00,
2013-01-10 02:31:00,38.9,35.9,29.97,SSW,203,1.3,2.2,89,0.00,,,0.00,WUHU216HW,2013-01-10 10:31:00,
2013-01-10 02:36:00,38.7,35.7,29.97,SSW,203,0.4,2.2,89,0.00,,,0.00,WUHU216HW,2013-01-10 10:36:00,
2013-01-10 02:41:00,38.7,36.0,29.97,SSW,203,0.0,2.2,90,0.00,,,0.00,WUHU216HW,2013-01-10 10:41:00,
2013-01-10 02:46:00,38.5,35.8,29.97,SSW,203,0.0,2.2,90,0.00,,,0.00,WUHU216HW,2013-01-10 10:46:00,
2013-01-10 02:51:00,38.5,35.8,29.98,SW,225,0.0,0.4,90,0.00,,,0.00,WUHU216HW,2013-01-10 10:51:00,
2013-01-10 02:56:00,38.5,35.8,29.98,SW,225,0.0,0.4,90,0.00,,,0.00,WUHU216HW,2013-01-10 10:56:00,
2013-01-10 03:01:00,38.3,35.6,29.98,SW,225,0.0,0.0,90,0.00,,,0.00,WUHU216HW,2013-01-10 11:01:00,
2013-01-10 03:06:00,38.2,35.5,29.98,WSW,248,0.0,0.0,90,0.00,,,0.00,WUHU216HW,2013-01-10 11:06:00,
2013-01-10 03:11:00,38.0,35.3,29.98,WSW,248,0.0,0.0,90,0.00,,,0.00,WUHU216HW,2013-01-10 11:11:00,
2013-01-10 03:16:00,37.8,35.1,29.98,WSW,248,0.4,0.4,90,0.00,,,0.00,WUHU216HW,2013-01-10 11:16:00,
2013-01-10 03:21:00,37.6,34.9,29.98,WSW,248,0.0,0.4,90,0.00,,,0.00,WUHU216HW,2013-01-10 11:21:00,
2013-01-10 03:26:00,37.4,34.7,29.98,WSW,248,0.0,0.4,90,0.00,,,0.00,WUHU216HW,2013-01-10 11:26:00,
2013-01-10 03:31:00,37.4,34.5,29.98,WSW,248,0.4,0.4,89,0.00,,,0.00,WUHU216HW,2013-01-10 11:31:00,
2013-01-10 03:36:00,37.3,34.6,29.98,WSW,248,0.0,0.4,90,0.00,,,0.00,WUHU216HW,2013-01-10 11:36:00,
2013-01-10 03:41:00,37.1,34.4,29.98,WSW,248,0.0,0.0,90,0.00,,,0.00,WUHU216HW,2013-01-10 11:41:00,
2013-01-10 03:46:00,37.1,34.4,29.98,WSW,248,0.0,0.0,90,0.00,,,0.00,WUHU216HW,2013-01-10 11:46:00,
2013-01-10 03:51:00,36.9,34.2,29.98,WSW,248,0.0,0.0,90,0.00,,,0.00,WUHU216HW,2013-01-10 11:51:00,
2013-01-10 03:56:00,36.7,34.0,29.98,WSW,248,0.0,0.0,90,0.00,,,0.00,WUHU216HW,2013-01-10 11:56:00,
2013-01-10 04:01:00,36.7,34.0,29.98,WSW,248,0.0,0.4,90,0.00,,,0.00,WUHU216HW,2013-01-10 12:01:00,
2013-01-10 04:06:00,36.5,33.8,29.98,WSW,248,0.0,0.4,90,0.00,,,0.00,WUHU216HW,2013-01-10 12:06:00,
2013-01-10 04:11:00,36.5,33.8,29.98,WSW,248,0.4,0.4,90,0.00,,,0.00,WUHU216HW,2013-01-10 12:11:00,
2013-01-10 04:16:00,36.5,34.1,29.98,WSW,248,0.0,0.4,91,0.00,,,0.00,WUHU216HW,2013-01-10 12:16:00,
2013-01-10 04:21:00,36.5,34.1,29.98,West,270,0.7,0.7,91,0.00,,,0.00,WUHU216HW,2013-01-10 12:21:00,
2013-01-10 04:26:00,36.7,34.3,29.98,SSW,203,1.1,1.1,91,0.00,,,0.00,WUHU216HW,2013-01-10 12:26:00,
2013-01-10 04:31:00,36.9,34.5,29.98,SSW,203,0.0,1.1,91,0.00,,,0.00,WUHU216HW,2013-01-10 12:31:00,
2013-01-10 04:36:00,37.1,34.7,29.98,SSE,158,1.1,1.1,91,0.00,,,0.00,WUHU216HW,2013-01-10 12:36:00,
2013-01-10 04:41:00,37.1,34.7,29.98,SSW,203,0.4,1.6,91,0.00,,,0.00,WUHU216HW,2013-01-10 12:41:00,
2013-01-10 04:46:00,37.1,34.7,29.99,SSW,203,0.4,1.6,91,0.00,,,0.00,WUHU216HW,2013-01-10 12:46:00,
2013-01-10 04:51:00,37.1,34.7,29.98,WSW,248,0.2,0.7,91,0.00,,,0.00,WUHU216HW,2013-01-10 12:51:00,
2013-01-10 04:56:00,36.9,34.5,29.99,West,270,0.0,0.2,91,0.00,,,0.00,WUHU216HW,2013-01-10 12:56:00,
2013-01-10 05:01:00,36.9,34.5,29.99,West,270,0.0,0.2,91,0.00,,,0.00,WUHU216HW,2013-01-10 13:01:00,
2013-01-10 05:06:00,36.7,34.3,29.99,West,270,0.4,0.4,91,0.00,,,0.00,WUHU216HW,2013-01-10 13:06:00,
2013-01-10 05:11:00,36.7,34.3,29.99,West,270,0.2,0.4,91,0.00,,,0.00,WUHU216HW,2013-01-10 13:11:00,
2013-01-10 05:16:00,36.7,34.3,29.99,NW,315,0.7,0.7,91,0.00,,,0.00,WUHU216HW,2013-01-10 13:16:00,
2013-01-10 05:21:00,36.5,34.1,29.99,West,270,0.2,0.9,91,0.00,,,0.00,WUHU216HW,2013-01-10 13:21:00,
2013-01-10 05:26:00,36.5,34.1,29.99,West,270,0.0,0.9,91,0.00,,,0.00,WUHU216HW,2013-01-10 13:26:00,
2013-01-10 05:31:00,36.4,33.9,29.99,WNW,293,0.4,0.7,91,0.00,,,0.00,WUHU216HW,2013-01-10 13:31:00,
2013-01-10 05:36:00,36.4,33.9,29.99,WNW,293,0.0,0.7,91,0.00,,,0.00,WUHU216HW,2013-01-10 13:36:00,
2013-01-10 05:41:00,36.4,33.9,29.99,WNW,293,0.2,0.4,91,0.00,,,0.00,WUHU216HW,2013-01-10 13:41:00,
2013-01-10 05:46:00,36.4,33.9,30.00,WNW,293,0.0,1.1,91,0.00,,,0.00,WUHU216HW,2013-01-10 13:46:00,
2013-01-10 05:51:00,36.2,33.8,30.00,WNW,293,0.2,1.1,91,0.00,,,0.00,WUHU216HW,2013-01-10 13:51:00,
2013-01-10 05:56:00,36.0,33.6,30.00,WNW,293,0.0,0.2,91,0.00,,,0.00,WUHU216HW,2013-01-10 13:56:00,
2013-01-10 06:01:00,36.0,33.6,30.00,WNW,293,0.0,0.2,91,0.00,,,0.00,WUHU216HW,2013-01-10 14:01:00,
2013-01-10 06:06:00,36.0,33.8,30.01,WNW,293,0.0,0.2,92,0.00,,,0.00,WUHU216HW,2013-01-10 14:06:00,
2013-01-10 06:11:00,36.0,33.8,30.01,SW,225,0.0,0.9,92,0.00,,,0.00,WUHU216HW,2013-01-10 14:11:00,
2013-01-10 06:16:00,36.2,34.0,30.01,SW,225,0.0,0.9,92,0.00,,,0.00,WUHU216HW,2013-01-10 14:16:00,
2013-01-10 06:21:00,36.2,34.0,30.01,SW,225,0.0,0.4,92,0.00,,,0.00,WUHU216HW,2013-01-10 14:21:00,
2013-01-10 06:26:00,36.2,34.0,30.01,SW,225,0.0,0.4,92,0.00,,,0.00,WUHU216HW,2013-01-10 14:26:00,
2013-01-10 06:31:00,36.2,34.0,30.01,WSW,248,0.0,1.3,92,0.00,,,0.00,WUHU216HW,2013-01-10 14:31:00,
2013-01-10 06:36:00,36.2,34.0,30.01,West,270,0.0,1.3,92,0.00,,,0.00,WUHU216HW,2013-01-10 14:36:00,
2013-01-10 06:41:00,36.4,34.2,30.02,West,270,0.7,0.7,92,0.00,,,0.00,WUHU216HW,2013-01-10 14:41:00,
2013-01-10 06:46:00,36.4,34.2,30.02,West,270,0.0,0.7,92,0.00,,,0.00,WUHU216HW,2013-01-10 14:46:00,
2013-01-10 06:50:00,36.4,34.2,30.02,West,270,0.0,0.2,92,0.00,,,0.00,WUHU216HW,2013-01-10 14:50:00,
2013-01-10 06:55:00,36.4,34.2,30.03,West,270,0.0,0.0,92,0.00,,,0.00,WUHU216HW,2013-01-10 14:55:00,
2013-01-10 07:00:00,36.4,34.2,30.03,West,270,0.0,0.0,92,0.00,,,0.00,WUHU216HW,2013-01-10 15:00:00,
2013-01-10 07:05:00,36.4,34.2,30.03,West,270,0.0,0.0,92,0.00,,,0.00,WUHU216HW,2013-01-10 15:05:00,
2013-01-10 07:10:00,36.5,34.4,30.03,West,270,0.0,0.4,92,0.00,,,0.00,WUHU216HW,2013-01-10 15:10:00,
2013-01-10 07:16:00,36.5,34.4,30.03,SSW,203,0.0,0.4,92,0.00,,,0.00,WUHU216HW,2013-01-10 15:16:00,
2013-01-10 07:21:00,36.7,34.6,30.03,SW,225,0.4,0.4,92,0.00,,,0.00,WUHU216HW,2013-01-10 15:21:00,
2013-01-10 07:25:00,36.7,34.6,30.03,West,270,0.0,0.4,92,0.00,,,0.00,WUHU216HW,2013-01-10 15:25:00,
2013-01-10 07:31:00,36.7,34.6,30.04,West,270,0.0,0.4,92,0.00,,,0.00,WUHU216HW,2013-01-10 15:31:00,
2013-01-10 07:36:00,36.7,34.6,30.04,West,270,0.2,0.2,92,0.00,,,0.00,WUHU216HW,2013-01-10 15:36:00,
2013-01-10 07:41:00,36.7,34.6,30.04,South,180,0.0,0.2,92,0.00,,,0.00,WUHU216HW,2013-01-10 15:41:00,
2013-01-10 07:46:00,36.7,34.6,30.04,SSW,203,0.4,2.0,92,0.00,,,0.00,WUHU216HW,2013-01-10 15:46:00,
2013-01-10 07:51:00,36.7,34.6,30.05,SW,225,0.4,2.0,92,0.00,,,0.00,WUHU216HW,2013-01-10 15:51:00,
2013-01-10 07:56:00,36.9,34.7,30.04,SSW,203,1.1,1.1,92,0.00,,,0.00,WUHU216HW,2013-01-10 15:56:00,
2013-01-10 08:01:00,36.7,34.6,30.05,SSW,203,0.0,1.1,92,0.00,,,0.00,WUHU216HW,2013-01-10 16:01:00,
2013-01-10 08:06:00,36.7,34.3,30.05,West,270,0.7,1.1,91,0.00,,,0.00,WUHU216HW,2013-01-10 16:06:00,
2013-01-10 08:11:00,36.5,34.1,30.05,South,180,0.2,0.9,91,0.00,,,0.00,WUHU216HW,2013-01-10 16:11:00,
2013-01-10 08:16:00,36.5,34.1,30.05,South,180,0.0,0.9,91,0.00,,,0.00,WUHU216HW,2013-01-10 16:16:00,
2013-01-10 08:21:00,36.4,34.2,30.06,NW,315,0.2,0.4,92,0.00,,,0.00,WUHU216HW,2013-01-10 16:21:00,
2013-01-10 08:26:00,36.4,34.2,30.06,West,270,0.0,0.4,92,0.00,,,0.00,WUHU216HW,2013-01-10 16:26:00,
2013-01-10 08:31:00,36.4,34.2,30.06,West,270,0.4,1.1,92,0.00,,,0.00,WUHU216HW,2013-01-10 16:31:00,
2013-01-10 08:36:00,36.4,34.2,30.07,South,180,1.3,1.3,92,0.00,,,0.00,WUHU216HW,2013-01-10 16:36:00,
2013-01-10 08:41:00,36.4,34.2,30.06,SW,225,2.5,2.5,92,0.00,,,0.00,WUHU216HW,2013-01-10 16:41:00,
2013-01-10 08:46:00,36.4,34.2,30.07,SW,225,0.4,2.5,92,0.00,,,0.00,WUHU216HW,2013-01-10 16:46:00,
2013-01-10 08:51:00,36.5,34.4,30.07,WSW,248,0.4,1.8,92,0.00,,,0.00,WUHU216HW,2013-01-10 16:51:00,
2013-01-10 08:56:00,36.9,34.7,30.07,South,180,0.2,0.7,92,0.00,,,0.00,WUHU216HW,2013-01-10 16:56:00,
2013-01-10 09:01:00,37.6,35.5,30.07,SSW,203,2.0,2.0,92,0.00,,,0.00,WUHU216HW,2013-01-10 17:01:00,
2013-01-10 09:06:00,38.3,36.2,30.07,South,180,0.7,2.0,92,0.00,,,0.00,WUHU216HW,2013-01-10 17:06:00,
2013-01-10 09:10:00,39.1,37.2,30.07,WSW,248,0.7,1.3,93,0.00,,,0.00,WUHU216HW,2013-01-10 17:10:00,
2013-01-10 09:15:00,39.6,37.4,30.07,WSW,248,0.9,2.5,92,0.00,,,0.00,WUHU216HW,2013-01-10 17:15:00,
2013-01-10 09:20:00,39.4,37.0,30.07,South,180,1.8,2.5,91,0.00,,,0.00,WUHU216HW,2013-01-10 17:20:00,
2013-01-10 09:25:00,39.2,36.5,30.07,WSW,248,0.4,2.5,90,0.00,,,0.00,WUHU216HW,2013-01-10 17:25:00,
2013-01-10 09:30:00,39.1,36.4,30.07,SSW,203,1.3,3.4,90,0.00,,,0.00,WUHU216HW,2013-01-10 17:30:00,
2013-01-10 09:35:00,38.7,36.0,30.07,SW,225,1.8,3.4,90,0.00,,,0.00,WUHU216HW,2013-01-10 17:35:00,
2013-01-10 09:40:00,38.5,35.8,30.07,SSE,158,0.4,1.8,90,0.00,,,0.00,WUHU216HW,2013-01-10 17:40:00,
2013-01-10 09:45:00,38.5,35.8,30.07,SSW,203,0.7,0.9,90,0.00,,,0.00,WUHU216HW,2013-01-10 17:45:00,
2013-01-10 09:50:00,38.5,36.1,30.07,South,180,1.1,1.8,91,0.00,,,0.00,WUHU216HW,2013-01-10 17:50:00,
2013-01-10 09:55:00,38.5,35.8,30.07,WSW,248,0.2,1.8,90,0.00,,,0.00,WUHU216HW,2013-01-10 17:55:00,
2013-01-10 10:00:00,38.5,35.8,30.08,South,180,0.4,1.3,90,0.00,,,0.00,WUHU216HW,2013-01-10 18:00:00,
2013-01-10 10:05:00,38.5,35.8,30.07,SSW,203,0.4,1.8,90,0.00,,,0.00,WUHU216HW,2013-01-10 18:05:00,
2013-01-10 10:10:00,38.5,35.8,30.08,SSW,203,1.1,1.8,90,0.00,,,0.00,WUHU216HW,2013-01-10 18:10:00,
2013-01-10 10:15:00,38.5,35.8,30.08,SW,225,0.7,1.1,90,0.00,,,0.00,WUHU216HW,2013-01-10 18:15:00,
2013-01-10 10:20:00,38.5,35.8,30.08,SSW,203,0.0,1.1,90,0.00,,,0.00,WUHU216HW,2013-01-10 18:20:00,
2013-01-10 10:25:00,38.5,35.8,30.09,SSW,203,0.2,1.1,90,0.00,,,0.00,WUHU216HW,2013-01-10 18:25:00,
2013-01-10 10:30:00,38.5,35.8,30.09,South,180,0.7,1.1,90,0.00,,,0.00,WUHU216HW,2013-01-10 18:30:00,
2013-01-10 10:35:00,38.5,35.8,30.08,South,180,0.4,1.6,90,0.00,,,0.00,WUHU216HW,2013-01-10 18:35:00,
2013-01-10 10:40:00,38.5,35.8,30.08,South,180,1.8,1.8,90,0.00,,,0.00,WUHU216HW,2013-01-10 18:40:00,
2013-01-10 10:45:00,38.5,35.8,30.08,SSW,203,1.8,1.8,90,0.00,,,0.00,WUHU216HW,2013-01-10 18:45:00,
2013-01-10 10:50:00,38.7,36.0,30.08,South,180,2.0,2.2,90,0.00,,,0.00,WUHU216HW,2013-01-10 18:50:00,
2013-01-10 10:55:00,38.5,35.8,30.08,SSE,158,1.8,2.2,90,0.00,,,0.00,WUHU216HW,2013-01-10 18:55:00,
2013-01-10 11:00:00,38.9,36.2,30.08,South,180,3.6,3.6,90,0.00,,,0.00,WUHU216HW,2013-01-10 19:00:00,
2013-01-10 11:05:00,39.1,36.6,30.08,South,180,1.3,3.6,91,0.00,,,0.00,WUHU216HW,2013-01-10 19:05:00,
2013-01-10 11:10:00,39.6,37.2,30.07,SW,225,0.7,3.4,91,0.00,,,0.00,WUHU216HW,2013-01-10 19:10:00,
2013-01-10 11:15:00,40.0,37.5,30.07,SSW,203,0.4,1.8,91,0.00,,,0.00,WUHU216HW,2013-01-10 19:15:00,
2013-01-10 11:20:00,40.0,37.3,30.07,SSW,203,0.4,1.8,90,0.00,,,0.00,WUHU216HW,2013-01-10 19:20:00,
2013-01-10 11:25:00,40.0,37.3,30.07,South,180,1.3,1.8,90,0.00,,,0.00,WUHU216HW,2013-01-10 19:25:00,
2013-01-10 11:30:00,40.0,37.3,30.07,South,180,2.9,2.9,90,0.00,,,0.00,WUHU216HW,2013-01-10 19:30:00,
2013-01-10 11:35:00,40.0,37.3,30.07,South,180,0.0,2.9,90,0.00,,,0.00,WUHU216HW,2013-01-10 19:35:00,
2013-01-10 11:41:00,40.0,37.3,30.07,South,180,0.9,2.5,90,0.00,,,0.00,WUHU216HW,2013-01-10 19:41:00,
2013-01-10 11:46:00,40.0,37.3,30.07,South,180,0.4,1.3,90,0.00,,,0.00,WUHU216HW,2013-01-10 19:46:00,
2013-01-10 11:51:00,39.8,37.1,30.07,South,180,1.3,1.3,90,0.00,,,0.00,WUHU216HW,2013-01-10 19:51:00,
2013-01-10 11:56:00,39.6,36.9,30.07,WSW,248,1.6,1.6,90,0.00,,,0.00,WUHU216HW,2013-01-10 19:56:00,
2013-01-10 12:01:00,39.4,36.7,30.07,SSW,203,0.7,1.8,90,0.00,,,0.00,WUHU216HW,2013-01-10 20:01:00,
2013-01-10 12:06:00,39.4,36.7,30.07,SSE,158,0.4,1.8,90,0.00,,,0.00,WUHU216HW,2013-01-10 20:06:00,
2013-01-10 12:11:00,39.4,36.7,30.06,South,180,0.7,3.4,90,0.00,,,0.00,WUHU216HW,2013-01-10 20:11:00,
2013-01-10 12:16:00,39.2,36.5,30.06,SW,225,0.4,3.4,90,0.00,,,0.00,WUHU216HW,2013-01-10 20:16:00,
2013-01-10 12:21:00,39.2,36.5,30.06,SSW,203,1.3,1.8,90,0.00,,,0.00,WUHU216HW,2013-01-10 20:21:00,
2013-01-10 12:26:00,39.2,36.5,30.06,SW,225,0.0,2.0,90,0.00,,,0.00,WUHU216HW,2013-01-10 20:26:00,
2013-01-10 12:31:00,39.2,36.5,30.06,SSW,203,0.4,2.0,90,0.00,,,0.00,WUHU216HW,2013-01-10 20:31:00,
2013-01-10 12:36:00,39.2,36.5,30.06,SSW,203,0.0,1.1,90,0.00,,,0.00,WUHU216HW,2013-01-10 20:36:00,
2013-01-10 12:41:00,39.4,36.7,30.06,SSW,203,0.7,2.5,90,0.00,,,0.00,WUHU216HW,2013-01-10 20:41:00,
2013-01-10 12:46:00,39.4,36.7,30.06,WSW,248,0.7,2.5,90,0.00,,,0.00,WUHU216HW,2013-01-10 20:46:00,
2013-01-10 12:51:00,39.4,36.7,30.06,West,270,0.7,1.8,90,0.01,,,0.01,WUHU216HW,2013-01-10 20:51:00,
2013-01-10 12:56:00,39.4,36.7,30.06,SW,225,0.2,1.6,90,0.02,,,0.01,WUHU216HW,2013-01-10 20:56:00,
2013-01-10 13:01:00,39.6,36.9,30.06,WSW,248,0.7,0.9,90,0.02,,,0.02,WUHU216HW,2013-01-10 21:01:00,
2013-01-10 13:06:00,39.6,36.9,30.06,WNW,293,0.0,0.7,90,0.02,,,0.02,WUHU216HW,2013-01-10 21:06:00,
2013-01-10 13:11:00,39.6,36.9,30.06,WNW,293,0.0,0.2,90,0.02,,,0.02,WUHU216HW,2013-01-10 21:11:00,
2013-01-10 13:16:00,39.6,36.9,30.06,WSW,248,1.1,1.1,90,0.02,,,0.02,WUHU216HW,2013-01-10 21:16:00,
2013-01-10 13:21:00,39.4,37.0,30.06,WSW,248,0.0,1.6,91,0.02,,,0.02,WUHU216HW,2013-01-10 21:21:00,
2013-01-10 13:26:00,39.6,37.2,30.06,WSW,248,0.4,1.6,91,0.03,,,0.02,WUHU216HW,2013-01-10 21:26:00,
2013-01-10 13:31:00,39.4,37.0,30.06,SE,135,0.0,1.1,91,0.03,,,0.03,WUHU216HW,2013-01-10 21:31:00,
2013-01-10 13:36:00,39.4,37.0,30.06,SSW,203,0.7,1.8,91,0.03,,,0.03,WUHU216HW,2013-01-10 21:36:00,
2013-01-10 13:41:00,39.4,37.0,30.06,WSW,248,0.0,1.8,91,0.04,,,0.03,WUHU216HW,2013-01-10 21:41:00,
2013-01-10 13:46:00,39.4,37.0,30.07,WSW,248,0.4,0.7,91,0.03,,,0.04,WUHU216HW,2013-01-10 21:46:00,
2013-01-10 13:51:00,39.4,37.0,30.07,WSW,248,1.1,1.1,91,0.03,,,0.04,WUHU216HW,2013-01-10 21:51:00,
2013-01-10 13:56:00,39.6,37.2,30.07,SW,225,0.4,3.1,91,0.02,,,0.04,WUHU216HW,2013-01-10 21:56:00,
2013-01-10 14:01:00,39.6,37.2,30.07,West,270,0.2,3.1,91,0.02,,,0.04,WUHU216HW,2013-01-10 22:01:00,
2013-01-10 14:06:00,39.6,37.2,30.07,SSW,203,0.4,0.9,91,0.02,,,0.04,WUHU216HW,2013-01-10 22:06:00,
2013-01-10 14:11:00,39.6,37.2,30.07,WSW,248,0.0,1.1,91,0.02,,,0.04,WUHU216HW,2013-01-10 22:11:00,
2013-01-10 14:17:00,39.6,37.2,30.07,SW,225,0.0,1.1,91,0.02,,,0.04,WUHU216HW,2013-01-10 22:17:00,
2013-01-10 14:22:00,39.6,37.2,30.07,SE,135,0.2,0.9,91,0.02,,,0.04,WUHU216HW,2013-01-10 22:22:00,
2013-01-10 14:27:00,39.6,37.2,30.07,West,270,1.1,1.1,91,0.01,,,0.04,WUHU216HW,2013-01-10 22:27:00,
2013-01-10 14:32:00,39.6,37.2,30.07,SSE,158,1.1,1.1,91,0.01,,,0.04,WUHU216HW,2013-01-10 22:32:00,
2013-01-10 14:37:00,39.6,37.2,30.07,WSW,248,0.2,1.1,91,0.01,,,0.04,WUHU216HW,2013-01-10 22:37:00,
2013-01-10 14:42:00,39.6,37.2,30.07,WSW,248,0.9,1.6,91,0.00,,,0.04,WUHU216HW,2013-01-10 22:42:00,
2013-01-10 14:47:00,39.6,37.2,30.07,SSE,158,0.4,1.6,91,0.00,,,0.04,WUHU216HW,2013-01-10 22:47:00,
2013-01-10 14:52:00,39.6,37.2,30.07,SSW,203,1.8,1.8,91,0.00,,,0.04,WUHU216HW,2013-01-10 22:52:00,
2013-01-10 14:57:00,39.6,37.2,30.07,SW,225,0.0,1.8,91,0.00,,,0.04,WUHU216HW,2013-01-10 22:57:00,
2013-01-10 15:02:00,39.6,37.2,30.07,WSW,248,0.9,1.1,91,0.00,,,0.04,WUHU216HW,2013-01-10 23:02:00,
2013-01-10 15:07:00,39.6,37.2,30.07,WSW,248,0.2,1.1,91,0.00,,,0.04,WUHU216HW,2013-01-10 23:07:00,
2013-01-10 15:12:00,39.6,37.2,30.07,WSW,248,0.0,0.9,91,0.00,,,0.04,WUHU216HW,2013-01-10 23:12:00,
2013-01-10 15:17:00,39.6,37.2,30.07,WSW,248,0.2,0.9,91,0.00,,,0.04,WUHU216HW,2013-01-10 23:17:00,
2013-01-10 15:22:00,39.6,37.2,30.07,WSW,248,0.4,1.3,91,0.00,,,0.04,WUHU216HW,2013-01-10 23:22:00,
2013-01-10 15:27:00,39.6,37.2,30.07,West,270,0.2,1.3,91,0.00,,,0.04,WUHU216HW,2013-01-10 23:27:00,
2013-01-10 15:32:00,39.6,37.2,30.07,West,270,0.2,1.1,91,0.00,,,0.04,WUHU216HW,2013-01-10 23:32:00,
2013-01-10 15:37:00,39.6,37.2,30.07,WSW,248,0.2,0.7,91,0.00,,,0.04,WUHU216HW,2013-01-10 23:37:00,
2013-01-10 15:42:00,39.6,37.2,30.07,SSW,203,0.0,1.1,91,0.00,,,0.04,WUHU216HW,2013-01-10 23:42:00,
2013-01-10 15:47:00,39.6,37.2,30.07,SW,225,0.9,1.1,91,0.00,,,0.04,WUHU216HW,2013-01-10 23:47:00,
2013-01-10 15:52:00,39.8,37.4,30.08,SW,225,1.6,1.6,91,0.00,,,0.04,WUHU216HW,2013-01-10 23:52:00,
2013-01-10 15:57:00,39.6,37.2,30.08,WSW,248,0.0,1.6,91,0.00,,,0.04,WUHU216HW,2013-01-10 23:57:00,
2013-01-10 16:02:00,39.6,37.2,30.08,SW,225,1.1,1.6,91,0.00,,,0.04,WUHU216HW,2013-01-11 00:02:00,
2013-01-10 16:07:00,39.6,37.2,30.08,SW,225,1.1,1.1,91,0.00,,,0.04,WUHU216HW,2013-01-11 00:07:00,
2013-01-10 16:12:00,39.6,37.2,30.08,SE,135,0.0,1.1,91,0.00,,,0.04,WUHU216HW,2013-01-11 00:12:00,
2013-01-10 16:17:00,39.6,37.2,30.08,SE,135,0.0,0.4,91,0.00,,,0.04,WUHU216HW,2013-01-11 00:17:00,
2013-01-10 16:22:00,39.6,37.2,30.08,East,90,0.0,0.4,91,0.00,,,0.04,WUHU216HW,2013-01-11 00:22:00,
2013-01-10 16:27:00,39.6,37.2,30.08,East,90,0.0,0.2,91,0.00,,,0.04,WUHU216HW,2013-01-11 00:27:00,
2013-01-10 16:32:00,39.4,37.0,30.08,East,90,0.0,0.0,91,0.00,,,0.04,WUHU216HW,2013-01-11 00:32:00,
2013-01-10 16:37:00,39.4,37.0,30.08,East,90,0.0,0.0,91,0.00,,,0.04,WUHU216HW,2013-01-11 00:37:00,
2013-01-10 16:42:00,39.2,36.8,30.08,North,0,1.1,2.5,91,0.00,,,0.04,WUHU216HW,2013-01-11 00:42:00,
2013-01-10 16:47:00,39.2,36.8,30.08,WNW,293,0.7,2.5,91,0.00,,,0.04,WUHU216HW,2013-01-11 00:47:00,
2013-01-10 16:52:00,39.2,36.8,30.08,North,0,0.4,1.1,91,0.00,,,0.04,WUHU216HW,2013-01-11 00:52:00,
2013-01-10 16:57:00,39.2,36.5,30.08,North,0,1.6,1.6,90,0.00,,,0.04,WUHU216HW,2013-01-11 00:57:00,
2013-01-10 17:02:00,39.2,36.5,30.08,NNE,23,0.4,1.6,90,0.00,,,0.04,WUHU216HW,2013-01-11 01:02:00,
2013-01-10 17:08:00,39.2,36.5,30.08,NNE,23,0.0,0.7,90,0.00,,,0.04,WUHU216HW,2013-01-11 01:08:00,
2013-01-10 17:13:00,39.1,36.4,30.08,NNE,23,0.0,0.7,90,0.00,,,0.04,WUHU216HW,2013-01-11 01:13:00,
2013-01-10 17:18:00,39.1,36.4,30.08,North,0,0.2,0.7,90,0.00,,,0.04,WUHU216HW,2013-01-11 01:18:00,
2013-01-10 17:23:00,39.1,36.1,30.07,North,0,0.4,0.7,89,0.00,,,0.04,WUHU216HW,2013-01-11 01:23:00,
2013-01-10 17:28:00,39.1,36.1,30.08,North,0,0.0,0.4,89,0.00,,,0.04,WUHU216HW,2013-01-11 01:28:00,
2013-01-10 17:33:00,38.9,35.9,30.08,North,0,0.2,0.4,89,0.00,,,0.04,WUHU216HW,2013-01-11 01:33:00,
2013-01-10 17:38:00,38.9,36.2,30.08,North,0,0.2,0.7,90,0.00,,,0.04,WUHU216HW,2013-01-11 01:38:00,
2013-01-10 17:43:00,38.7,36.0,30.08,North,0,0.0,0.7,90,0.00,,,0.04,WUHU216HW,2013-01-11 01:43:00,
2013-01-10 17:48:00,38.7,36.0,30.08,North,0,0.0,0.4,90,0.00,,,0.04,WUHU216HW,2013-01-11 01:48:00,
2013-01-10 17:53:00,38.5,35.8,30.08,North,0,0.0,0.4,90,0.00,,,0.04,WUHU216HW,2013-01-11 01:53:00,
2013-01-10 17:58:00,38.5,35.8,30.08,North,0,0.0,0.7,90,0.00,,,0.04,WUHU216HW,2013-01-11 01:58:00,
2013-01-10 18:03:00,38.3,35.6,30.08,North,0,0.0,0.7,90,0.00,,,0.04,WUHU216HW,2013-01-11 02:03:00,
2013-01-10 18:08:00,38.2,35.5,30.09,North,0,0.0,0.4,90,0.00,,,0.04,WUHU216HW,2013-01-11 02:08:00,
2013-01-10 18:13:00,38.2,35.5,30.09,North,0,0.0,0.0,90,0.00,,,0.04,WUHU216HW,2013-01-11 02:13:00,
2013-01-10 18:18:00,38.0,35.3,30.09,North,0,0.0,0.4,90,0.00,,,0.04,WUHU216HW,2013-01-11 02:18:00,
2013-01-10 18:23:00,37.8,35.1,30.09,North,0,0.0,0.4,90,0.00,,,0.04,WUHU216HW,2013-01-11 02:23:00,
2013-01-10 18:28:00,37.8,35.1,30.09,North,0,0.0,0.2,90,0.00,,,0.04,WUHU216HW,2013-01-11 02:28:00,
2013-01-10 18:33:00,37.6,34.9,30.09,NNW,338,0.4,0.9,90,0.00,,,0.04,WUHU216HW,2013-01-11 02:33:00,
2013-01-10 18:38:00,37.4,34.7,30.09,NNW,338,0.4,0.9,90,0.00,,,0.04,WUHU216HW,2013-01-11 02:38:00,
2013-01-10 18:43:00,37.3,34.3,30.09,NNW,338,0.4,0.7,89,0.00,,,0.04,WUHU216HW,2013-01-11 02:43:00,
2013-01-10 18:48:00,37.1,34.1,30.09,NNW,338,0.4,0.4,89,0.00,,,0.04,WUHU216HW,2013-01-11 02:48:00,
2013-01-10 18:53:00,37.1,34.1,30.09,NNW,338,0.0,0.4,89,0.00,,,0.04,WUHU216HW,2013-01-11 02:53:00,
2013-01-10 18:58:00,36.9,33.9,30.09,NNW,338,0.2,0.4,89,0.00,,,0.04,WUHU216HW,2013-01-11 02:58:00,
2013-01-10 19:03:00,36.7,33.8,30.09,NNW,338,0.4,0.4,89,0.00,,,0.04,WUHU216HW,2013-01-11 03:03:00,
2013-01-10 19:08:00,36.5,33.6,30.09,NNW,338,0.0,0.4,89,0.00,,,0.04,WUHU216HW,2013-01-11 03:08:00,
2013-01-10 19:13:00,36.4,33.4,30.09,NNW,338,0.4,0.4,89,0.00,,,0.04,WUHU216HW,2013-01-11 03:13:00,
2013-01-10 19:18:00,36.4,33.4,30.09,NNW,338,0.4,0.4,89,0.00,,,0.04,WUHU216HW,2013-01-11 03:18:00,
2013-01-10 19:23:00,36.2,33.2,30.09,NNW,338,0.4,0.7,89,0.00,,,0.04,WUHU216HW,2013-01-11 03:23:00,
2013-01-10 19:28:00,36.0,33.0,30.09,NNW,338,0.0,0.7,89,0.00,,,0.04,WUHU216HW,2013-01-11 03:28:00,
2013-01-10 19:33:00,36.0,33.0,30.09,NNW,338,0.0,0.4,89,0.00,,,0.04,WUHU216HW,2013-01-11 03:33:00,
2013-01-10 19:38:00,36.0,33.0,30.09,NNW,338,0.9,0.9,89,0.00,,,0.04,WUHU216HW,2013-01-11 03:38:00,
2013-01-10 19:43:00,35.8,32.9,30.09,NNW,338,0.0,0.9,89,0.00,,,0.04,WUHU216HW,2013-01-11 03:43:00,
2013-01-10 19:48:00,35.8,32.9,30.09,NNW,338,0.0,0.4,89,0.00,,,0.04,WUHU216HW,2013-01-11 03:48:00,
2013-01-10 19:53:00,35.8,32.9,30.09,NNW,338,0.0,0.0,89,0.00,,,0.04,WUHU216HW,2013-01-11 03:53:00,
2013-01-10 19:58:00,35.6,32.7,30.09,NNW,338,0.2,0.4,89,0.00,,,0.04,WUHU216HW,2013-01-11 03:58:00,
2013-01-10 20:03:00,35.6,32.9,30.09,NNW,338,0.0,0.4,90,0.00,,,0.04,WUHU216HW,2013-01-11 04:03:00,
2013-01-10 20:08:00,35.6,32.9,30.09,NNW,338,0.4,0.4,90,0.00,,,0.04,WUHU216HW,2013-01-11 04:08:00,
2013-01-10 20:14:00,35.5,32.8,30.09,NNW,338,0.2,0.4,90,0.00,,,0.04,WUHU216HW,2013-01-11 04:14:00,
2013-01-10 20:19:00,35.3,32.6,30.09,NNW,338,0.4,0.7,90,0.00,,,0.04,WUHU216HW,2013-01-11 04:19:00,
2013-01-10 20:24:00,35.3,32.6,30.09,NNW,338,0.7,0.7,90,0.00,,,0.04,WUHU216HW,2013-01-11 04:24:00,
2013-01-10 20:29:00,35.1,32.4,30.09,NNW,338,0.4,0.7,90,0.00,,,0.04,WUHU216HW,2013-01-11 04:29:00,
2013-01-10 20:34:00,34.9,32.2,30.09,NNW,338,0.7,1.1,90,0.00,,,0.04,WUHU216HW,2013-01-11 04:34:00,
2013-01-10 20:39:00,34.9,32.2,30.09,NNW,338,0.4,1.1,90,0.00,,,0.04,WUHU216HW,2013-01-11 04:39:00,
2013-01-10 20:44:00,34.9,32.2,30.09,NNW,338,0.2,0.7,90,0.00,,,0.04,WUHU216HW,2013-01-11 04:44:00,
2013-01-10 20:49:00,34.9,32.2,30.09,NNW,338,0.4,0.4,90,0.00,,,0.04,WUHU216HW,2013-01-11 04:49:00,
2013-01-10 20:54:00,34.9,32.2,30.10,North,0,0.4,0.7,90,0.00,,,0.04,WUHU216HW,2013-01-11 04:54:00,
2013-01-10 20:59:00,34.7,32.0,30.10,North,0,0.0,0.7,90,0.00,,,0.04,WUHU216HW,2013-01-11 04:59:00,
2013-01-10 21:00:00,34.7,32.0,30.10,North,0,0.0,0.7,90,0.00,,,0.04,WUHU216HW,2013-01-11 05:00:00,
2013-01-10 21:03:00,34.7,32.0,30.10,North,0,0.0,0.7,90,0.00,,,0.04,WUHU216HW,2013-01-11 05:03:00,
2013-01-10 21:08:00,34.6,31.9,30.10,North,0,0.4,0.4,90,0.00,,,0.04,WUHU216HW,2013-01-11 05:08:00,
2013-01-10 21:13:00,34.6,31.9,30.10,North,0,0.0,0.4,90,0.00,,,0.04,WUHU216HW,2013-01-11 05:13:00,
2013-01-10 21:18:00,34.6,31.9,30.10,North,0,0.0,0.0,90,0.00,,,0.04,WUHU216HW,2013-01-11 05:18:00,
2013-01-10 21:23:00,34.4,31.7,30.10,North,0,0.0,0.9,90,0.00,,,0.04,WUHU216HW,2013-01-11 05:23:00,
2013-01-10 21:28:00,34.2,31.5,30.10,North,0,0.4,0.9,90,0.00,,,0.04,WUHU216HW,2013-01-11 05:28:00,
2013-01-10 21:33:00,34.2,31.2,30.10,North,0,0.0,0.4,89,0.00,,,0.04,WUHU216HW,2013-01-11 05:33:00,
2013-01-10 21:38:00,34.2,31.2,30.10,North,0,0.2,0.7,89,0.00,,,0.04,WUHU216HW,2013-01-11 05:38:00,
2013-01-10 21:43:00,34.2,31.2,30.10,North,0,0.0,0.7,89,0.00,,,0.04,WUHU216HW,2013-01-11 05:43:00,
2013-01-10 21:48:00,34.2,31.2,30.10,North,0,0.0,0.4,89,0.00,,,0.04,WUHU216HW,2013-01-11 05:48:00,
2013-01-10 21:53:00,34.0,31.1,30.10,North,0,0.2,0.4,89,0.00,,,0.04,WUHU216HW,2013-01-11 05:53:00,
2013-01-10 21:58:00,34.0,31.1,30.10,North,0,0.0,0.4,89,0.00,,,0.04,WUHU216HW,2013-01-11 05:58:00,
2013-01-10 22:03:00,33.8,30.9,30.11,North,0,0.7,0.9,89,0.00,,,0.04,WUHU216HW,2013-01-11 06:03:00,
2013-01-10 22:08:00,33.8,30.9,30.10,North,0,0.4,0.9,89,0.00,,,0.04,WUHU216HW,2013-01-11 06:08:00,
2013-01-10 22:13:00,33.7,30.7,30.10,North,0,0.4,0.7,89,0.00,,,0.04,WUHU216HW,2013-01-11 06:13:00,
2013-01-10 22:18:00,33.7,30.7,30.10,North,0,0.0,0.4,89,0.00,,,0.04,WUHU216HW,2013-01-11 06:18:00,
2013-01-10 22:23:00,33.5,30.5,30.10,North,0,0.0,0.4,89,0.00,,,0.04,WUHU216HW,2013-01-11 06:23:00,
2013-01-10 22:28:00,33.5,30.5,30.11,North,0,0.4,0.7,89,0.00,,,0.04,WUHU216HW,2013-01-11 06:28:00,
2013-01-10 22:33:00,33.5,30.5,30.10,North,0,0.0,0.7,89,0.00,,,0.04,WUHU216HW,2013-01-11 06:33:00,
2013-01-10 22:38:00,33.3,30.3,30.11,North,0,0.0,0.9,89,0.00,,,0.04,WUHU216HW,2013-01-11 06:38:00,
2013-01-10 22:43:00,33.3,30.3,30.11,North,0,0.0,0.9,89,0.00,,,0.04,WUHU216HW,2013-01-11 06:43:00,
2013-01-10 22:48:00,33.3,30.3,30.11,North,0,0.7,0.7,89,0.00,,,0.04,WUHU216HW,2013-01-11 06:48:00,
2013-01-10 22:53:00,33.1,30.3,30.11,North,0,0.0,0.9,89,0.00,,,0.04,WUHU216HW,2013-01-11 06:53:00,
2013-01-10 22:58:00,33.1,30.3,30.11,North,0,0.4,0.9,89,0.00,,,0.04,WUHU216HW,2013-01-11 06:58:00,
2013-01-10 23:03:00,33.1,30.3,30.11,North,0,0.4,0.7,89,0.00,,,0.04,WUHU216HW,2013-01-11 07:03:00,
2013-01-10 23:08:00,33.1,30.3,30.11,North,0,0.2,0.7,89,0.00,,,0.04,WUHU216HW,2013-01-11 07:08:00,
2013-01-10 23:13:00,33.1,30.3,30.11,North,0,0.0,0.4,89,0.00,,,0.04,WUHU216HW,2013-01-11 07:13:00,
2013-01-10 23:18:00,33.1,30.3,30.11,North,0,0.2,0.4,89,0.00,,,0.04,WUHU216HW,2013-01-11 07:18:00,
2013-01-10 23:23:00,33.1,30.3,30.11,North,0,0.4,0.4,89,0.00,,,0.04,WUHU216HW,2013-01-11 07:23:00,
2013-01-10 23:28:00,33.1,30.3,30.11,North,0,0.0,0.4,89,0.00,,,0.04,WUHU216HW,2013-01-11 07:28:00,
2013-01-10 23:33:00,33.1,30.3,30.11,North,0,0.2,0.4,89,0.00,,,0.04,WUHU216HW,2013-01-11 07:33:00,
2013-01-10 23:38:00,33.1,30.3,30.11,North,0,0.0,0.7,89,0.00,,,0.04,WUHU216HW,2013-01-11 07:38:00,
2013-01-10 23:43:00,33.1,30.3,30.12,North,0,0.0,0.7,89,0.00,,,0.04,WUHU216HW,2013-01-11 07:43:00,
2013-01-10 23:48:00,33.1,30.3,30.12,North,0,0.0,0.4,89,0.00,,,0.04,WUHU216HW,2013-01-11 07:48:00,
2013-01-10 23:53:00,33.1,30.3,30.12,North,0,0.0,0.4,89,0.00,,,0.04,WUHU216HW,2013-01-11 07:53:00,
2013-01-10 23:58:00,32.9,30.1,30.11,North,0,0.0,0.2,89,0.00,,,0.04,WUHU216HW,2013-01-11 07:58:00,